Location: Poughquag
(41.6090°N, 73.6820°W)
Time: 06:00:16
(UTC-04:00)

ITUPSAT 1 - Pass Details

Date: 26 June 2024
Orbit: 695 x 705 km, 98.5° (Epoch: 24 July)

Event Time Altitude Azimuth Distance (km) Brightness Sun altitude
Rises 23:44:55 0° 5° (N) 3,107 ? -22.9°
Reaches altitude 10° 23:47:17 10° 358° (N) 2,184 ? -23.1°
Maximum altitude 23:51:43 39° 290° (WNW) 1,051 ? -23.3°
Enters shadow 23:53:54 25° 240° (WSW) 1,410 ? -23.4°
